OpenBCM V1.08-5-g2f4a (Linux)

Packet Radio Mailbox

IZ3LSV

[San Dona' di P. JN]

 Login: GUEST





  
I0OJJ  > KEPS     25.08.25 01:40l 316 Lines 15020 Bytes #62 (0) @ AMSAT
BID : ORB25237.1
Read: GUEST
Subj: 2Line Orbital Elements 25237.AMSAT
Path: IZ3LSV<IK6IHL<IK7NXU<HB9ON<HB9ON<PI8ZTM<IR0AAB<I0OJJ
Sent: 250825/0025z @:I0OJJ.ITA.EU [Rome] obcm1.08-10-g596e
From: I0OJJ @ I0OJJ.ITA.EU (Gustavo)
To:   KEPS @ AMSAT
X-Info: This message was generated automatically


QST de KM1P

AMSAT Orbital Elements for Amateur Satellites in TLE Format
From Orbital Analysis Auxilliary Summer Office
New England Sci-Tech STEM Education Center
Narragansett RI August 25, 2025
To all radio amateurs


These element sets describe the orbits of various satellites 
in use by the amateur radio community. For details see:
www.amsat.org/keplerian-elements-formats/

A daily update of element sets is available at:
www.amsat.org/tle/daily-bulletin.txt
or without bulletin text:
www.amsat.org/tle/dailytle.txt


AO-07
1 07530U 74089B   25236.62712391 -.00000034  00000-0  77750-4 0  9990
2 07530 101.9969 241.7077 0012128 338.9801 142.6692 12.53691028323359
UO-11
1 14781U 84021B   25236.44617336  .00001281  00000-0  13992-3 0  9997
2 14781  97.7615 201.3498 0009457  86.6528 273.5771 14.89576845212931
AO-27
1 22825U 93061C   25236.44173886  .00000097  00000-0  54027-4 0  9995
2 22825  98.7309 298.3542 0007348 247.5830 112.4574 14.30820060664566
FO-29
1 24278U 96046B   25236.61067492 -.00000005  00000-0  28355-4 0  9994
2 24278  98.5632 120.4642 0350443 145.4661 216.9793 13.53251849433056
NOAA-15
1 25338U 98030A   25236.60815889  .00000091  00000-0  55011-4 0  9990
2 25338  98.5333 259.9014 0011156 132.3435 227.8692 14.27005933418990
GO-32
1 25397U 98043D   25236.48969540  .00000047  00000-0  40249-4 0  9997
2 25397  98.9777 217.2183 0001595  34.5904 325.5378 14.24331363409099
ISS
1 25544U 98067A   25236.59450492  .00011160  00000-0  20218-3 0  9991
2 25544  51.6356 328.0179 0003310 265.0130  95.0481 15.50148668525779
NO-44
1 26931U 01043C   25236.57864918  .00000106  00000-0  70858-4 0  9994
2 26931  67.0507 291.3400 0006844 276.0310  84.0012 14.31765761247984
SO-50
1 27607U 02058C   25236.61713695  .00000887  00000-0  12690-3 0  9997
2 27607  64.5542 325.7889 0064322 317.8500  41.7668 14.81805567220497
CO-55
1 27844U 03031E   25236.56430509  .00000251  00000-0  12845-3 0  9993
2 27844  98.6781 243.8646 0009017 333.9788  26.0936 14.24046470149458
CO-57
1 27848U 03031J   25236.47809839  .00000214  00000-0  11370-3 0  9994
2 27848  98.6810 243.7274 0009306 352.4158   7.6878 14.23374082149169
RS-22
1 27939U 03042A   25236.58223441  .00000979  00000-0  16232-3 0  9998
2 27939  98.3350  47.9063 0012382 125.8487 324.3030 14.72511613171881
CO-58
1 28895U 05043F   25236.35618836  .00001373  00000-0  23069-3 0  9999
2 28895  98.2601  21.7053 0015548  69.1321 291.1548 14.71238350 58088
CO-65
1 32785U 08021C   25236.54592327  .00005100  00000-0  36268-3 0  9995
2 32785  97.7911 208.3322 0008508 323.6195  36.4451 15.05095477940505
CO-66
1 32791U 08021J   25236.50111418  .00010979  00000-0  50766-3 0  9995
2 32791  97.7333 218.3456 0001266 241.8531 118.2576 15.20343481942022
RS-30
1 32953U 08025A   25236.61555354  .00000017  00000-0  53500-4 0  9994
2 32953  82.5061 179.8984 0017940 238.8032 121.1290 12.43167434782849
NOAA-19
1 33591U 09005A   25236.58757618  .00000079  00000-0  66286-4 0  9998
2 33591  98.9920 301.6998 0014432 145.8844 214.3259 14.13398253852587
SRMSAT
1 37841U 11058D   25236.59494956  .00000388  00000-0  66664-4 0  9998
2 37841  19.9728  54.5398 0011706 180.9666 239.3123 14.11455169715863
ZACUBE-1
1 39417U 13066B   25236.45404611  .00002697  00000-0  23362-3 0  9996
2 39417  97.7863 193.1195 0044126 156.1055 204.2228 14.97243770636262
Delfi-N3xt
1 39428U 13066N   25236.50969909  .00005453  00000-0  54528-3 0  9991
2 39428  97.8298 153.3363 0085304 109.8543 251.1893 14.89142216630371
GOMX-1
1 39430U 13066Q   25236.56567990  .00001328  00000-0  21231-3 0  9996
2 39430  97.6756  90.5503 0130832 309.6733  49.2992 14.67899006626370
LO-74
1 39440U 13066AA  25236.41987399  .00002632  00000-0  26693-3 0  9996
2 39440  97.8527 180.4923 0059677 290.4178  69.0637 14.90463858632732
AO-73
1 39444U 13066AE  25236.45478264  .00006113  00000-0  44798-3 0  9994
2 39444  97.7862 198.7254 0042483 129.0009 231.5012 15.03178053634980
DTUSAT-2
1 40030U 14033W   25236.43134623  .00005455  00000-0  34780-3 0  9996
2 40030  98.0613 211.9924 0009894 153.3281 206.8457 15.09137520607836
EO-80
1 40032U 14033Y   25236.51406057  .00005190  00000-0  33031-3 0  9994
2 40032  98.0500 211.6282 0010622 102.2200 258.0218 15.09219314607827
LILACSAT-2
1 40908U 15049K   25236.58360872  .00009557  00000-0  23756-3 0  9999
2 40908  97.5037 258.8406 0007223 238.1918 121.8625 15.40501064549923
IO-86
1 40931U 15052B   25151.18580175  .00001241  00000-0  78118-4 0  9996
2 40931   6.0006  24.0987 0012733 338.8432  21.1169 14.78805930523159
Horyu-4
1 41340U 16012D   25236.58463246  .00021536  00000-0  51879-3 0  9998
2 41340  30.9974 339.6846 0007224 129.5185 230.6100 15.39981808524501
Lapan A3
1 41603U 16040E   25236.62419002  .00002909  00000-0  10149-3 0  9995
2 41603  97.1400 238.2805 0010906   8.7074 351.4354 15.30329950509418
CAS-2T
1 41847U 16066G   25236.43977581  .00000542  00000-0  87250-4 0  9992
2 41847  98.4158 310.2309 0344508 309.1068  47.9949 14.43664285461961
CAS-4B
1 42759U 17034B   25236.37015182  .00109764  00000-0  69119-3 0  9993
2 42759  43.0017 226.6188 0020434 106.5809 253.7306 15.75310102454508
CAS-4A
1 42761U 17034D   25236.32162447  .00128051  00000-0  72257-3 0  9995
2 42761  43.0053 222.9498 0021148 112.0659 248.2460 15.77693850454520
TechnoSat
1 42829U 17042E   25236.46174501  .00002723  00000-0  21054-3 0  9994
2 42829  97.3997  41.5735 0018147  30.0171 330.2090 15.02165944442115
AO-91
1 43017U 17073E   25236.57242002  .00005680  00000-0  28815-3 0  9999
2 43017  97.5140 105.4361 0167486 267.4634  90.7411 15.05888121420644
S-Net D
1 43186U 18014G   25236.59850211  .00004376  00000-0  25519-3 0  9990
2 43186  97.5534 138.7279 0007968 335.2513  24.8335 15.12469917413868
S-Net B
1 43187U 18014H   25236.20794071  .00004505  00000-0  26275-3 0  9994
2 43187  97.5541 138.3168 0008554 330.4733  29.6014 15.12445716413805
S-Net A
1 43188U 18014J   25236.59861954  .00004361  00000-0  25428-3 0  9991
2 43188  97.5548 138.8637 0008418 330.1017  29.9732 15.12475747413863
S-Net C
1 43189U 18014K   25236.60748490  .00004714  00000-0  27465-3 0  9998
2 43189  97.5563 138.8995 0009700 319.9793  40.0722 15.12446291412414
Ten-Koh
1 43677U 18084G   25236.47287504  .00001775  00000-0  14456-3 0  9996
2 43677  98.0832  51.7349 0007240  24.4486 335.7079 15.00880595371623
PO-101
1 43678U 18084H   25236.57939648  .00002434  00000-0  20808-3 0  9992
2 43678  98.1076  55.6363 0009153  46.4676 313.7305 14.98627167371767
QO-100
1 43700U 18090A   25236.60722712  .00000132  00000-0  00000-0 0  9993
2 43700   0.0129 115.9178 0001047  51.4594  50.1394  1.00271202 24700
MinXSS-2
1 43758U 18099A   25236.16185951  .00013015  00000-0  48094-3 0  9996
2 43758  97.4963 302.5280 0010215 243.9415 116.0773 15.27811730368506
AO-95
1 43770U 18099N   25236.39809323  .00006999  00000-0  34295-3 0  9992
2 43770  97.4854 293.6807 0008890 313.0080  47.0408 15.18426357368052
SNUSat 2
1 43782U 18099AA  25236.62439106  .00006270  00000-0  33349-3 0  9990
2 43782  97.4534 290.0248 0010416 245.9229 114.0914 15.15565111368017
SnugLite
1 43784U 18099AC  25236.60927372  .00007435  00000-0  36079-3 0  9994
2 43784  97.4348 289.7355 0002211 225.0049 135.1007 15.18768978368172
ITASat 1
1 43786U 18099AE  25236.58512720  .00004680  00000-0  26264-3 0  9994
2 43786  97.4503 289.2658 0012554 306.7769  53.2310 15.13762235367952
EAGLET 1
1 43790U 18099AJ  25236.59277690  .00002831  00000-0  17987-3 0  9992
2 43790  97.4702 288.9666 0010281 290.9236  69.0893 15.09605391367530
ESEO
1 43792U 18099AL  25236.57759772  .00001055  00000-0  82981-4 0  9992
2 43792  97.4428 281.1848 0009762 262.4353  97.5764 15.02859531367230
JO-97
1 43803U 18099AX  25236.60763744  .00008950  00000-0  39082-3 0  9997
2 43803  97.4600 295.0568 0006293 228.1309 131.9391 15.22339032368336
Suomi 100
1 43804U 18099AY  25236.61855962  .00007761  00000-0  36673-3 0  9995
2 43804  97.4662 294.1346 0010841 237.2993 122.7197 15.19634240368240
ISAT
1 43879U 18111D   25236.56432744  .00018261  00000-0  58164-3 0  9991
2 43879  97.5892 152.7528 0005426 295.4384  64.6296 15.32602417365328
UWE-4
1 43880U 18111E   25236.49710733  .00013519  00000-0  49797-3 0  9995
2 43880  97.5837 150.5974 0009214 311.4178  48.6268 15.27919897365215
Sparrow
1 43881U 18111F   25236.22028533  .00019547  00000-0  59552-3 0  9994
2 43881  97.6050 155.5866 0005208 356.3119   3.8083 15.34006926365374
Prox-1
1 44339U 19036A   25236.43799077  .00008785  00000-0  10665-2 0  9994
2 44339  23.9963 283.0028 0006963 210.4282 149.5812 14.81319548329270
Taurus 1
1 44530U 19059C   25236.68081130  .00005447  00000-0  98859-3 0  9997
2 44530  98.6148  19.7593 0009969 156.1883 203.9783 14.66629120315090
Duchifat 3
1 44854U 19089C   25236.33081435  .00050961  00000-0  78120-3 0  9999
2 44854  36.9387 231.3160 0007221 216.8233 143.2030 15.53270249314779
TO-108
1 44881U 19093C   25236.59943818  .00000741  00000-0  91403-4 0  9995
2 44881  97.7879 310.6488 0013332 348.0214  12.0682 14.85733798307361
FloripaSat 1
1 44885U 19093G   25236.58864536  .00004766  00000-0  39629-3 0  9999
2 44885  97.8144 324.3718 0008066 314.9305  45.1263 14.99167437308134
RS-44
1 44909U 19096E   25236.54617687  .00000016  00000-0  11820-4 0  9996
2 44909  82.5246 176.8141 0218390 117.7912 244.5514 12.79742690264402
UPMSat 2
1 46276U 20061E   25236.20328926  .00118900  00000-0  59446-3 0  9994
2 46276  97.2362 313.7214 0002316 209.5581 150.5557 15.81487210277369
SALSAT
1 46495U 20068K   25236.62273486  .00006237  00000-0  26280-3 0  9999
2 46495  97.8670 218.2425 0009139 254.6026 105.4201 15.23698755270102
